CCA9661 ZBYC-ZSHC

Flight info

Callsign CCA9661
Flight time 1h 40m
Altitude 37100
Route OML09D OMLIX DCT CGO B208 HFE R343 UPLEL W95 SAPIN A470 IGRAT IGR91A
Aircraft A20N/M-SDE2E3FGHIRWXY/LB1

Departure

Time 2026-05-08 02:27
Airport Yuncheng Yanhu International Airport (ZBYC)

Arrival

Time 2026-05-08 04:07
Airport Hangzhou Xiaoshan International Airport (ZSHC)
Time Latitude Longitude Altitude Speed Heading
2026-05-08 02:09 35.11470 111.03698 1263 ft 0 kts 167°
2026-05-08 02:16 35.11492 111.03692 1263 ft 3 kts 167°
2026-05-08 02:16 35.11518 111.03684 1263 ft 3 kts 167°
2026-05-08 02:16 35.11537 111.03667 1263 ft 3 kts 115°
2026-05-08 02:17 35.11539 111.03643 1263 ft 0 kts 76°
2026-05-08 02:19 35.11539 111.03644 1263 ft 0 kts 76°
2026-05-08 02:19 35.11541 111.03655 1263 ft 2 kts 76°
2026-05-08 02:20 35.11547 111.03690 1263 ft 5 kts 81°
2026-05-08 02:20 35.11559 111.03748 1263 ft 7 kts 51°
2026-05-08 02:20 35.11617 111.03747 1263 ft 9 kts 347°
2026-05-08 02:20 35.11688 111.03728 1263 ft 11 kts 349°
2026-05-08 02:21 35.11744 111.03700 1263 ft 8 kts 293°
2026-05-08 02:21 35.11734 111.03619 1263 ft 12 kts 258°
2026-05-08 02:21 35.11712 111.03498 1263 ft 16 kts 258°
2026-05-08 02:21 35.11712 111.03413 1263 ft 8 kts 327°
2026-05-08 02:22 35.11773 111.03391 1263 ft 9 kts 347°
2026-05-08 02:22 35.11841 111.03371 1263 ft 9 kts 330°
2026-05-08 02:22 35.11844 111.03286 1263 ft 11 kts 257°
2026-05-08 02:22 35.11824 111.03179 1263 ft 14 kts 257°
2026-05-08 02:23 35.11800 111.03050 1263 ft 17 kts 258°
2026-05-08 02:23 35.11772 111.02886 1262 ft 21 kts 258°
2026-05-08 02:23 35.11739 111.02689 1262 ft 25 kts 258°
2026-05-08 02:23 35.11702 111.02467 1262 ft 28 kts 258°
2026-05-08 02:24 35.11659 111.02225 1262 ft 29 kts 258°
2026-05-08 02:24 35.11616 111.01989 1262 ft 27 kts 257°
2026-05-08 02:24 35.11571 111.01770 1262 ft 26 kts 262°
2026-05-08 02:24 35.11541 111.01560 1262 ft 20 kts 258°
2026-05-08 02:25 35.11499 111.01472 1261 ft 7 kts 237°
2026-05-08 02:25 35.11517 111.01437 1261 ft 5 kts 16°
2026-05-08 02:25 35.11530 111.01488 1261 ft 5 kts 76°
2026-05-08 02:25 35.11532 111.01497 1262 ft 0 kts 76°
2026-05-08 02:26 35.11535 111.01514 1262 ft 7 kts 79°
2026-05-08 02:26 35.11573 111.01792 1262 ft 65 kts 63°
2026-05-08 02:26 35.11726 111.02598 1263 ft 128 kts 77°
2026-05-08 02:26 35.11946 111.03863 1426 ft 163 kts 78°
2026-05-08 02:27 35.12175 111.05153 2135 ft 155 kts 78°
2026-05-08 02:27 35.12410 111.06417 2644 ft 150 kts 73°
2026-05-08 02:27 35.12660 111.07672 2748 ft 159 kts 85°
2026-05-08 02:27 35.12860 111.09023 3197 ft 169 kts 83°
2026-05-08 02:28 35.13085 111.10499 3586 ft 185 kts 81°
2026-05-08 02:28 35.13355 111.12084 3950 ft 203 kts 79°
2026-05-08 02:28 35.13665 111.13831 4431 ft 217 kts 79°
2026-05-08 02:28 35.13987 111.15633 5121 ft 220 kts 79°
2026-05-08 02:29 35.14184 111.17513 5646 ft 233 kts 99°
2026-05-08 02:29 35.13531 111.19332 6209 ft 244 kts 128°
2026-05-08 02:29 35.12453 111.21023 6736 ft 260 kts 127°
2026-05-08 02:29 35.11333 111.22835 7263 ft 275 kts 126°
2026-05-08 02:30 35.10191 111.24723 8026 ft 280 kts 125°
2026-05-08 02:30 35.09058 111.26619 8849 ft 282 kts 124°
2026-05-08 02:30 35.07896 111.28572 9648 ft 285 kts 123°
2026-05-08 02:30 35.06737 111.30524 10377 ft 289 kts 123°
2026-05-08 02:31 35.05536 111.32550 10829 ft 304 kts 124°
2026-05-08 02:31 35.04257 111.34707 11170 ft 322 kts 124°
2026-05-08 02:31 35.02978 111.36998 11594 ft 335 kts 118°
2026-05-08 02:31 35.01919 111.39527 12236 ft 339 kts 111°
2026-05-08 02:32 35.01096 111.42220 12887 ft 343 kts 107°
2026-05-08 02:32 35.00337 111.44983 13518 ft 348 kts 106°
2026-05-08 02:32 34.99579 111.47789 14163 ft 352 kts 106°
2026-05-08 02:32 34.98806 111.50639 14797 ft 357 kts 106°
2026-05-08 02:33 34.98016 111.53529 15413 ft 361 kts 106°
2026-05-08 02:33 34.97221 111.56424 16017 ft 365 kts 107°
2026-05-08 02:33 34.96402 111.59395 16608 ft 370 kts 107°
2026-05-08 02:33 34.95591 111.62328 17194 ft 373 kts 107°
2026-05-08 02:34 34.94755 111.65345 17758 ft 378 kts 107°
2026-05-08 02:34 34.93911 111.68398 18269 ft 383 kts 107°
2026-05-08 02:34 34.93060 111.71479 18801 ft 387 kts 107°
2026-05-08 02:34 34.92195 111.74596 19295 ft 392 kts 107°
2026-05-08 02:35 34.91328 111.77715 19746 ft 396 kts 107°
2026-05-08 02:35 34.90438 111.80907 19933 ft 398 kts 107°
2026-05-08 02:35 34.89547 111.84091 19939 ft 398 kts 108°
2026-05-08 02:35 34.88639 111.87291 19943 ft 398 kts 108°
2026-05-08 02:36 34.87767 111.90443 19947 ft 398 kts 106°
2026-05-08 02:36 34.87032 111.93684 19956 ft 399 kts 102°
2026-05-08 02:36 34.86420 111.97027 20281 ft 404 kts 101°
2026-05-08 02:36 34.85838 112.00331 20891 ft 404 kts 101°
2026-05-08 02:37 34.85249 112.03678 21416 ft 408 kts 101°
2026-05-08 02:37 34.84652 112.07065 21858 ft 412 kts 101°
2026-05-08 02:37 34.84045 112.10503 22305 ft 417 kts 101°
2026-05-08 02:37 34.83435 112.13940 22782 ft 420 kts 101°
2026-05-08 02:38 34.82814 112.17423 23230 ft 424 kts 101°
2026-05-08 02:38 34.82190 112.20927 23648 ft 429 kts 101°
2026-05-08 02:38 34.81559 112.24465 24062 ft 433 kts 101°
2026-05-08 02:38 34.80915 112.28066 24464 ft 438 kts 102°
2026-05-08 02:39 34.80265 112.31697 24855 ft 442 kts 102°
2026-05-08 02:39 34.79608 112.35345 25234 ft 447 kts 102°
2026-05-08 02:39 34.78941 112.39043 25606 ft 451 kts 102°
2026-05-08 02:39 34.78268 112.42767 25943 ft 457 kts 102°
2026-05-08 02:40 34.77583 112.46555 26310 ft 460 kts 102°
2026-05-08 02:40 34.76894 112.50361 26686 ft 464 kts 102°
2026-05-08 02:40 34.76193 112.54215 27066 ft 467 kts 103°
2026-05-08 02:40 34.75499 112.58047 27383 ft 471 kts 103°
2026-05-08 02:41 34.74791 112.61923 27734 ft 475 kts 103°
2026-05-08 02:41 34.74070 112.65878 28038 ft 479 kts 104°
2026-05-08 02:41 34.73354 112.69801 28349 ft 482 kts 103°
2026-05-08 02:41 34.72627 112.73777 28656 ft 485 kts 104°
2026-05-08 02:42 34.71894 112.77779 28930 ft 488 kts 104°
2026-05-08 02:42 34.71161 112.81771 29442 ft 485 kts 104°
2026-05-08 02:42 34.70425 112.85785 29977 ft 482 kts 104°
2026-05-08 02:42 34.69696 112.89745 30277 ft 484 kts 104°
2026-05-08 02:43 34.68961 112.93713 30549 ft 487 kts 104°
2026-05-08 02:43 34.68217 112.97720 30812 ft 490 kts 104°
2026-05-08 02:43 34.67468 113.01757 31061 ft 492 kts 104°
2026-05-08 02:43 34.66713 113.05830 31347 ft 494 kts 104°
2026-05-08 02:44 34.65960 113.09868 31878 ft 489 kts 104°
2026-05-08 02:44 34.65220 113.13830 32407 ft 485 kts 104°
2026-05-08 02:44 34.64484 113.17781 32823 ft 483 kts 104°
2026-05-08 02:44 34.63730 113.21812 32925 ft 489 kts 104°
2026-05-08 02:45 34.62978 113.25797 33048 ft 494 kts 104°
2026-05-08 02:45 34.62207 113.29889 33172 ft 498 kts 104°
2026-05-08 02:45 34.61426 113.34023 33317 ft 502 kts 104°
2026-05-08 02:45 34.60652 113.38125 33529 ft 504 kts 104°
2026-05-08 02:46 34.59873 113.42240 33839 ft 504 kts 104°
2026-05-08 02:46 34.59089 113.46381 34165 ft 503 kts 104°
2026-05-08 02:46 34.58308 113.50492 34437 ft 503 kts 104°
2026-05-08 02:46 34.57521 113.54625 34701 ft 504 kts 104°
2026-05-08 02:47 34.56742 113.58717 34969 ft 504 kts 104°
2026-05-08 02:47 34.55949 113.62879 35264 ft 503 kts 104°
2026-05-08 02:47 34.55167 113.66958 35524 ft 503 kts 105°
2026-05-08 02:47 34.54372 113.71121 35754 ft 503 kts 105°
2026-05-08 02:48 34.53560 113.75196 35959 ft 502 kts 109°
2026-05-08 02:48 34.52421 113.79153 36129 ft 500 kts 117°
2026-05-08 02:48 34.50861 113.82880 36316 ft 495 kts 126°
2026-05-08 02:48 34.48906 113.86308 36502 ft 488 kts 135°
2026-05-08 02:49 34.46659 113.89299 36652 ft 482 kts 144°
2026-05-08 02:49 34.44117 113.91946 36773 ft 477 kts 149°
2026-05-08 02:49 34.41502 113.94401 36882 ft 478 kts 150°
2026-05-08 02:49 34.40614 113.95222 36919 ft 478 kts 150°
2026-05-08 02:50 34.37756 113.97870 37034 ft 481 kts 150°
2026-05-08 02:50 34.35113 114.00345 37169 ft 482 kts 150°
2026-05-08 02:50 34.32487 114.02825 37309 ft 482 kts 149°
2026-05-08 02:51 34.27186 114.07858 37330 ft 485 kts 149°
2026-05-08 02:51 34.22827 114.12007 37321 ft 486 kts 149°
2026-05-08 02:52 34.18079 114.16523 37327 ft 491 kts 149°
2026-05-08 02:52 34.12687 114.21637 37324 ft 498 kts 148°
2026-05-08 02:53 34.07239 114.26808 37333 ft 500 kts 149°
2026-05-08 02:53 34.01774 114.31982 37334 ft 500 kts 148°
2026-05-08 02:54 33.96295 114.37164 37330 ft 501 kts 149°
2026-05-08 02:54 33.90855 114.42300 37333 ft 501 kts 149°
2026-05-08 02:55 33.82612 114.50038 37330 ft 502 kts 149°
2026-05-08 02:56 33.77156 114.55238 37328 ft 502 kts 148°
2026-05-08 02:56 33.71717 114.60466 37333 ft 503 kts 148°
2026-05-08 02:57 33.66341 114.65922 37319 ft 509 kts 143°
2026-05-08 02:57 33.61501 114.72119 37325 ft 514 kts 137°
2026-05-08 02:58 33.56814 114.78643 37323 ft 515 kts 136°
2026-05-08 02:58 33.52179 114.85159 37314 ft 516 kts 136°
2026-05-08 02:59 33.47528 114.91672 37330 ft 515 kts 136°
2026-05-08 02:59 33.42896 114.98131 37321 ft 515 kts 136°
2026-05-08 03:00 33.38225 115.04620 37326 ft 516 kts 136°
2026-05-08 03:00 33.33607 115.11042 37273 ft 508 kts 136°
2026-05-08 03:01 33.28966 115.17469 37255 ft 514 kts 136°
2026-05-08 03:01 33.24278 115.23942 37316 ft 519 kts 136°
2026-05-08 03:02 33.19615 115.30395 37326 ft 506 kts 136°
2026-05-08 03:02 33.15043 115.36704 37337 ft 506 kts 137°
2026-05-08 03:03 33.10464 115.43002 37338 ft 505 kts 137°
2026-05-08 03:03 33.05839 115.49349 37336 ft 507 kts 137°
2026-05-08 03:04 33.01244 115.55655 37350 ft 507 kts 137°
2026-05-08 03:04 32.96623 115.61989 37354 ft 505 kts 136°
2026-05-08 03:05 32.92023 115.68291 37340 ft 505 kts 137°
2026-05-08 03:05 32.87444 115.74558 37342 ft 506 kts 136°
2026-05-08 03:06 32.82891 115.80981 37346 ft 507 kts 135°
2026-05-08 03:06 32.78370 115.87418 37335 ft 508 kts 135°
2026-05-08 03:07 32.73846 115.93836 37335 ft 508 kts 136°
2026-05-08 03:07 32.69334 116.00218 37333 ft 507 kts 136°
2026-05-08 03:08 32.64788 116.06631 37320 ft 508 kts 136°
2026-05-08 03:08 32.60254 116.13019 37329 ft 510 kts 135°
2026-05-08 03:09 32.55696 116.19443 37336 ft 510 kts 135°
2026-05-08 03:09 32.51218 116.25935 37316 ft 510 kts 134°
2026-05-08 03:10 32.46743 116.32465 37306 ft 510 kts 134°
2026-05-08 03:10 32.42282 116.38950 37316 ft 510 kts 135°
2026-05-08 03:11 32.37801 116.45441 37310 ft 509 kts 134°
2026-05-08 03:11 32.33300 116.51942 37310 ft 511 kts 134°
2026-05-08 03:12 32.28835 116.58401 37314 ft 510 kts 134°
2026-05-08 03:12 32.24340 116.64876 37315 ft 512 kts 134°
2026-05-08 03:13 32.19851 116.71368 37309 ft 511 kts 134°
2026-05-08 03:13 32.15306 116.77801 37318 ft 509 kts 136°
2026-05-08 03:14 32.10725 116.84136 37313 ft 510 kts 136°
2026-05-08 03:14 32.06120 116.90516 37318 ft 511 kts 136°
2026-05-08 03:15 32.01555 116.96845 37322 ft 511 kts 136°
2026-05-08 03:15 31.96965 117.03205 37318 ft 510 kts 136°
2026-05-08 03:16 31.92376 117.09579 37315 ft 510 kts 135°
2026-05-08 03:16 31.87802 117.15913 37316 ft 510 kts 136°
2026-05-08 03:17 31.83185 117.22282 37312 ft 510 kts 135°
2026-05-08 03:17 31.79271 117.29273 37315 ft 520 kts 118°
2026-05-08 03:18 31.76961 117.37289 37316 ft 523 kts 101°
2026-05-08 03:18 31.76207 117.45777 37317 ft 523 kts 92°
2026-05-08 03:19 31.75757 117.54239 37316 ft 522 kts 92°
2026-05-08 03:19 31.75222 117.62714 37311 ft 523 kts 93°
2026-05-08 03:20 31.74626 117.71256 37309 ft 523 kts 94°
2026-05-08 03:20 31.74028 117.79703 37311 ft 523 kts 94°
2026-05-08 03:21 31.73414 117.88206 37319 ft 524 kts 94°
2026-05-08 03:21 31.72800 117.96702 37311 ft 523 kts 94°
2026-05-08 03:22 31.72184 118.05169 37310 ft 522 kts 94°
2026-05-08 03:22 31.71569 118.13628 37308 ft 523 kts 94°
2026-05-08 03:23 31.70974 118.22101 37309 ft 522 kts 93°
2026-05-08 03:23 31.70384 118.30552 37306 ft 522 kts 93°
2026-05-08 03:24 31.69787 118.39063 37310 ft 522 kts 93°
2026-05-08 03:24 31.69187 118.47485 37308 ft 521 kts 94°
2026-05-08 03:25 31.68582 118.55936 37310 ft 521 kts 94°
2026-05-08 03:25 31.67965 118.64365 37314 ft 521 kts 94°
2026-05-08 03:26 31.67348 118.72852 37315 ft 522 kts 94°
2026-05-08 03:26 31.66725 118.81318 37315 ft 522 kts 94°
2026-05-08 03:27 31.66097 118.89736 37315 ft 522 kts 94°
2026-05-08 03:27 31.64942 118.98068 37283 ft 516 kts 116°
2026-05-08 03:27 31.63091 119.01608 37296 ft 502 kts 139°
2026-05-08 03:28 31.60508 119.04232 37308 ft 484 kts 155°
2026-05-08 03:28 31.54752 119.08365 37310 ft 491 kts 154°
2026-05-08 03:29 31.49212 119.12994 37301 ft 495 kts 150°
2026-05-08 03:29 31.43684 119.17885 37294 ft 495 kts 150°
2026-05-08 03:30 31.35440 119.25087 37296 ft 495 kts 150°
2026-05-08 03:31 31.24413 119.34686 37296 ft 496 kts 150°
2026-05-08 03:32 31.16111 119.41910 37303 ft 496 kts 150°
2026-05-08 03:32 31.10580 119.46735 37302 ft 498 kts 150°
2026-05-08 03:33 31.05033 119.51578 37309 ft 497 kts 150°
2026-05-08 03:33 30.99509 119.56391 37309 ft 497 kts 150°
2026-05-08 03:34 30.94010 119.61179 37309 ft 496 kts 150°
2026-05-08 03:34 30.88442 119.66014 37309 ft 497 kts 150°
2026-05-08 03:35 30.82906 119.70834 37315 ft 496 kts 150°
2026-05-08 03:35 30.77374 119.75631 37318 ft 498 kts 150°
2026-05-08 03:36 30.71843 119.80420 37316 ft 496 kts 150°
2026-05-08 03:36 30.66399 119.85326 37323 ft 499 kts 149°
2026-05-08 03:37 30.60686 119.89726 37326 ft 488 kts 159°
2026-05-08 03:37 30.54734 119.93450 37322 ft 487 kts 160°
2026-05-08 03:38 30.48757 119.97186 37325 ft 489 kts 160°
2026-05-08 03:38 30.42778 120.00972 37325 ft 489 kts 159°
2026-05-08 03:39 30.36814 120.04737 37324 ft 487 kts 161°
2026-05-08 03:39 30.33716 120.06054 37290 ft 454 kts 182°
2026-05-08 03:39 30.30742 120.06086 37272 ft 416 kts 203°
2026-05-08 03:39 30.28148 120.04979 36891 ft 379 kts 225°
2026-05-08 03:40 30.26343 120.02990 36344 ft 351 kts 244°
2026-05-08 03:40 30.25198 120.00537 35796 ft 339 kts 255°
2026-05-08 03:40 30.24565 119.97961 35268 ft 332 kts 265°
2026-05-08 03:40 30.24429 119.95345 34798 ft 326 kts 275°
2026-05-08 03:41 30.24797 119.92787 34344 ft 322 kts 286°
2026-05-08 03:41 30.25656 119.90420 33883 ft 323 kts 297°
2026-05-08 03:41 30.26985 119.88338 33399 ft 328 kts 308°
2026-05-08 03:41 30.28754 119.86658 32934 ft 336 kts 320°
2026-05-08 03:42 30.30783 119.85305 32464 ft 337 kts 322°
2026-05-08 03:42 30.32834 119.83968 31925 ft 338 kts 322°
2026-05-08 03:42 30.34868 119.82655 31427 ft 337 kts 323°
2026-05-08 03:42 30.36916 119.81344 30954 ft 336 kts 323°
2026-05-08 03:43 30.38965 119.80039 30465 ft 336 kts 323°
2026-05-08 03:43 30.41139 119.78935 29957 ft 346 kts 338°
2026-05-08 03:43 30.43529 119.78558 29491 ft 359 kts 353°
2026-05-08 03:43 30.46038 119.78964 29035 ft 371 kts 10°
2026-05-08 03:44 30.48419 119.80212 28604 ft 382 kts 28°
2026-05-08 03:44 30.50433 119.82257 28210 ft 390 kts 47°
2026-05-08 03:44 30.51853 119.84943 27797 ft 395 kts 66°
2026-05-08 03:44 30.52508 119.88018 27382 ft 395 kts 86°
2026-05-08 03:45 30.52330 119.91157 26984 ft 389 kts 107°
2026-05-08 03:45 30.51334 119.94115 26570 ft 379 kts 126°
2026-05-08 03:45 30.49713 119.96474 26145 ft 367 kts 145°
2026-05-08 03:45 30.47666 119.98146 25741 ft 353 kts 159°
2026-05-08 03:46 30.45525 119.99427 25340 ft 350 kts 161°
2026-05-08 03:46 30.43352 120.00696 24898 ft 350 kts 160°
2026-05-08 03:46 30.41163 120.02016 24261 ft 357 kts 159°
2026-05-08 03:46 30.38961 120.03383 23647 ft 363 kts 159°
2026-05-08 03:47 30.36708 120.04765 23035 ft 364 kts 163°
2026-05-08 03:47 30.34329 120.05504 22439 ft 353 kts 182°
2026-05-08 03:47 30.31912 120.05363 21855 ft 344 kts 199°
2026-05-08 03:47 30.29695 120.04509 21278 ft 338 kts 212°
2026-05-08 03:48 30.27738 120.03027 20689 ft 333 kts 226°
2026-05-08 03:48 30.26234 120.01077 20185 ft 327 kts 239°
2026-05-08 03:48 30.25214 119.98778 19932 ft 315 kts 252°
2026-05-08 03:48 30.24730 119.96375 19903 ft 299 kts 264°
2026-05-08 03:49 30.24739 119.94031 19894 ft 285 kts 276°
2026-05-08 03:49 30.25176 119.91860 19890 ft 272 kts 287°
2026-05-08 03:49 30.25962 119.89936 19891 ft 268 kts 297°
2026-05-08 03:49 30.27098 119.88207 19894 ft 272 kts 308°
2026-05-08 03:50 30.28540 119.86772 19770 ft 275 kts 320°
2026-05-08 03:50 30.30191 119.85624 19393 ft 278 kts 323°
2026-05-08 03:50 30.31912 119.84511 18766 ft 289 kts 324°
2026-05-08 03:50 30.33685 119.83378 18061 ft 301 kts 325°
2026-05-08 03:51 30.35541 119.82198 17422 ft 309 kts 326°
2026-05-08 03:51 30.37442 119.80994 16988 ft 310 kts 326°
2026-05-08 03:51 30.39317 119.79810 16634 ft 308 kts 327°
2026-05-08 03:51 30.41331 119.78863 16068 ft 320 kts 341°
2026-05-08 03:52 30.43581 119.78539 15483 ft 333 kts 356°
2026-05-08 03:52 30.45902 119.78907 14895 ft 345 kts 12°
2026-05-08 03:52 30.48134 119.80011 14303 ft 355 kts 28°
2026-05-08 03:52 30.50063 119.81814 13714 ft 364 kts 45°
2026-05-08 03:53 30.51516 119.84229 13115 ft 371 kts 62°
2026-05-08 03:53 30.52328 119.87107 12510 ft 376 kts 79°
2026-05-08 03:53 30.52389 119.90093 11915 ft 379 kts 96°
2026-05-08 03:53 30.51688 119.93018 11308 ft 380 kts 116°
2026-05-08 03:54 30.50152 119.95509 10724 ft 378 kts 137°
2026-05-08 03:54 30.48037 119.97137 10367 ft 355 kts 158°
2026-05-08 03:54 30.45769 119.98006 10070 ft 333 kts 163°
2026-05-08 03:54 30.43645 119.98747 9925 ft 309 kts 165°
2026-05-08 03:55 30.41599 119.99457 9896 ft 306 kts 158°
2026-05-08 03:55 30.39690 120.00570 9832 ft 306 kts 149°
2026-05-08 03:55 30.37927 120.01952 9450 ft 304 kts 137°
2026-05-08 03:55 30.36379 120.03568 9141 ft 300 kts 142°
2026-05-08 03:56 30.34638 120.04889 8841 ft 298 kts 148°
2026-05-08 03:56 30.32855 120.06088 8521 ft 296 kts 149°
2026-05-08 03:56 30.31078 120.07308 8200 ft 293 kts 147°
2026-05-08 03:56 30.29351 120.08543 7937 ft 290 kts 146°
2026-05-08 03:57 30.27648 120.09796 7896 ft 291 kts 146°
2026-05-08 03:57 30.25951 120.11062 7880 ft 292 kts 146°
2026-05-08 03:57 30.24250 120.12336 7882 ft 293 kts 146°
2026-05-08 03:57 30.22486 120.13553 7871 ft 292 kts 156°
2026-05-08 03:58 30.20505 120.13891 7666 ft 287 kts 190°
2026-05-08 03:58 30.18749 120.12974 7445 ft 276 kts 224°
2026-05-08 03:58 30.17731 120.11178 7077 ft 269 kts 255°
2026-05-08 03:58 30.17222 120.09094 6716 ft 269 kts 256°
2026-05-08 03:59 30.16563 120.07069 6335 ft 272 kts 239°
2026-05-08 03:59 30.15185 120.05622 5972 ft 272 kts 202°
2026-05-08 03:59 30.13380 120.05338 5770 ft 260 kts 165°
2026-05-08 03:59 30.11837 120.06278 5587 ft 244 kts 130°
2026-05-08 04:00 30.10826 120.07783 5436 ft 231 kts 115°
2026-05-08 04:00 30.10308 120.09486 5081 ft 228 kts 92°
2026-05-08 04:00 30.10496 120.11234 4881 ft 216 kts 65°
2026-05-08 04:00 30.11185 120.12752 4884 ft 211 kts 58°
2026-05-08 04:01 30.11933 120.14202 4866 ft 213 kts 58°
2026-05-08 04:01 30.12675 120.15689 4687 ft 213 kts 59°
2026-05-08 04:01 30.13383 120.17187 4412 ft 212 kts 61°
2026-05-08 04:01 30.14066 120.18690 4132 ft 212 kts 62°
2026-05-08 04:02 30.14737 120.20201 3847 ft 211 kts 62°
2026-05-08 04:02 30.15395 120.21702 3572 ft 209 kts 63°
2026-05-08 04:02 30.16045 120.23188 3307 ft 207 kts 63°
2026-05-08 04:02 30.16692 120.24669 3031 ft 206 kts 63°
2026-05-08 04:03 30.17340 120.26148 2752 ft 204 kts 63°
2026-05-08 04:03 30.18611 120.29041 2220 ft 201 kts 63°
2026-05-08 04:03 30.19240 120.30469 1951 ft 195 kts 63°
2026-05-08 04:04 30.19833 120.31814 1789 ft 181 kts 62°
2026-05-08 04:04 30.20385 120.33065 1550 ft 167 kts 62°
2026-05-08 04:04 30.20895 120.34222 1291 ft 154 kts 61°
2026-05-08 04:04 30.21361 120.35274 1069 ft 141 kts 61°
2026-05-08 04:05 30.21796 120.36253 888 ft 136 kts 64°
2026-05-08 04:05 30.22224 120.37226 721 ft 136 kts 61°
2026-05-08 04:05 30.22656 120.38205 561 ft 135 kts 63°
2026-05-08 04:05 30.23075 120.39161 404 ft 135 kts 59°
2026-05-08 04:06 30.23519 120.40128 198 ft 133 kts 63°
2026-05-08 04:06 30.23933 120.41087 54 ft 135 kts 61°
2026-05-08 04:06 30.24328 120.41981 38 ft 107 kts 61°
2026-05-08 04:06 30.24591 120.42570 38 ft 57 kts 63°
2026-05-08 04:07 30.24711 120.42874 38 ft 34 kts 76°
2026-05-08 04:07 30.24724 120.43069 38 ft 13 kts 91°
2026-05-08 04:07 30.24716 120.43140 38 ft 8 kts 127°
2026-05-08 04:07 30.24661 120.43141 38 ft 9 kts 211°
2026-05-08 04:08 30.24621 120.43072 37 ft 11 kts 244°
2026-05-08 04:08 30.24587 120.42992 38 ft 9 kts 243°
2026-05-08 04:08 30.24553 120.42920 38 ft 10 kts 242°
2026-05-08 04:08 30.24517 120.42838 38 ft 11 kts 243°
2026-05-08 04:09 30.24483 120.42763 38 ft 7 kts 236°
2026-05-08 04:09 30.24433 120.42752 38 ft 8 kts 155°
2026-05-08 04:09 30.24377 120.42786 38 ft 9 kts 152°
2026-05-08 04:09 30.24318 120.42805 38 ft 7 kts 197°
2026-05-08 04:10 30.24266 120.42797 38 ft 8 kts 153°
2026-05-08 04:10 30.24211 120.42831 38 ft 9 kts 152°
2026-05-08 04:10 30.24153 120.42865 38 ft 8 kts 154°
2026-05-08 04:10 30.24122 120.42880 38 ft 4 kts 171°
2026-05-08 04:11 30.24107 120.42869 38 ft 2 kts 266°
2026-05-08 04:11 30.24100 120.42846 38 ft 3 kts 241°
2026-05-08 04:11 30.24092 120.42829 38 ft 0 kts 242°
2026-05-08 04:11 30.24092 120.42828 38 ft 0 kts 243°